Погода в Новогольском

Россия / Воронежская область     51°29′07″N   41°27′54″E
темп.,
°C
ветер,
м/с
пор.,
м/с
влажн.,
%
обл.,
%
осадки,
мм/ч
давл.,
гПа
погр.,
м
7 марта, вс
вс700:00−12зсз47944 0.0 1017133
03:00−13з35932 0.0 101885
06:00−12зюз47950 0.0 1018102
09:00−8зюз510900 0.0 1017371
12:00−3зюз8128296 0.0 10151082
15:00−2юз8147598 0.0 10111058
18:00−3юз91868100 0.0 1007967
21:00−2зюз91878100 0.0 10051029
8 марта, пн
пн800:00−2зюз101794100 0.8 10041044
03:00−1зюз91693100 1.1 1004857
06:00−3юз489099 0.4 1005203
09:00−2зюз41097100 1.1 1005616
12:000зюз81298100 1.8 1005924
15:000зсз71280100 3.1 10051294
18:00−5зсз47843 0.0 1007117
21:00−8сз23881 0.0 100921
9 марта, вт
вт900:00−10зсз119030 0.0 101021
03:00−11зюз019017 0.0 101021
06:00−10с119391 0.0 101021
09:00−7с129495 0.9 1011151
12:00−6ссз3591100 0.3 1012500
15:00−6ссз5788100 0.5 1013642
18:00−10сз4992100 0.0 1015277
21:00−14сз4109484 0.0 1019250
10 марта, ср
ср1000:00−17сз499519 0.0 1020165
03:00−18сз479612 0.0 1022134
06:00−19сз47979 0.0 1023122
09:00−17сз48936 0.0 1025298
12:00−14сз478520 0.0 1025538
15:00−13сз46829 0.0 1026532
18:00−16ссз239091 0.0 102638
21:00−18ссв359290 0.0 1027128
11 марта, чт
чт1100:00−21св3393100 0.0 102870
03:00−22св339395 0.0 103048
06:00−24св23930 0.0 103126
09:00−21всв23890 0.0 1032171
12:00−17св23790 0.0 1033327
15:00−15св33770 0.0 1033356
18:00−19св23880 0.0 103320
21:00−21всв12860 0.0 103520